www.pogodaiklimat.ru

АРХИВ ПОГОДЫ в Vancouver

Время (UTC), дата Ветер
(напр.,м/с)
 
Видим.   Явления Облачность Т
(С)
Тd
(С)
f
(%)
Тe
(С)
Тes
(С)
Комфортность P
(гПа)
Po
(гПа)
Тmin
(С)
Tmax
(С)
R
(мм)
S
(см)
15 11.01 С 1 45 км 1/0
[]
-4.0 -11.1 58 -4 -4 прохладно 1008.6 1008.0
18 11.01 В 2 45 км ясно -1.9 -9.1 58 -5 -3 холодно 1011.2 1010.6 -6.7 -1.7
21 11.01 ЮЗ 2 45 км ясно +1.0 -9.1 47 -2 +1 прохладно 1012.4 1011.8
00 12.01 ЮЗ 2 45 км ясно +0.9 -6.9 56 -1 -1 прохладно 1014.2 1013.6 -6.7 +1.8
03 12.01 ЮВ 2 45 км ясно -0.7 -6.1 67 -3 -3 прохладно 1016.5 1015.9
06 12.01 В 3 45 км ясно -3.5 -6.5 80 -8 -8 очень
холодно
1018.4 1017.8 -6.7 +1.8
09 12.01 В 3 45 км ясно -4.4 -8.0 76 -9 -9 очень
холодно
1020.0 1019.4
12 12.01 В 3 45 км ясно -6.9 -9.6 81 -13 -13 очень
холодно
1021.8 1021.2 -7.1 +1.8
15 12.01 В 3 45 км ясно -6.0 -9.4 77 -12 -12 очень
холодно
1023.0 1022.4
18 12.01 В 3 45 км ясно -3.5 -7.0 77 -9 -8 очень
холодно
1025.6 1025.0 -7.6 -3.2
21 12.01 ЮЗ 2 45 км ясно -0.1 -5.7 66 -3 -0 холодно 1025.2 1024.6
00 13.01 СЗ 2 45 км ясно -0.4 -4.1 76 -4 -4 холодно 1026.2 1025.6 -7.6 +0.5
03 13.01 СЗ 1 45 км 1/0
[]
-2.7 -5.0 84 -5 -5 холодно 1027.1 1026.5
06 13.01 В 2 45 км 9/0
[Ac As Cs]
-3.4 -5.4 86 -8 -8 очень
холодно
1028.7 1028.1 -7.6 +0.5
09 13.01 В 4 45 км 3/0
[]
-5.7 -7.5 87 -12 -12 очень
холодно
1029.2 1028.6
12 13.01 В 2 45 км 8/0
[Ac As]
-5.5 -7.8 84 -10 -10 очень
холодно
1030.4 1029.8 -6.2 +0.5
15 13.01 В 3 45 км 5/0
[]
-5.9 -7.1 91 -11 -11 очень
холодно
1031.1 1030.5
18 13.01 В 2 45 км 10/0
[Ac As Cs]
-3.3 -5.3 86 -7 -7 очень
холодно
1032.6 1032.0 -7.1 -2.2
21 13.01 Ю 1 45 км 10/0
[]
0.0 -5.6 66 -2 -0 прохладно 1031.7 1031.1
00 14.01 Ю 1 45 км 10/0
[Ac As]
+0.4 -4.4 70 -1 -1 прохладно 1032.0 1031.4 -7.1 +0.8
03 14.01 С 1 45 км 10/0
[]
-0.4 -3.4 80 -1 -1 прохладно 1031.9 1031.3
06 14.01 В 3 45 км 10/0
[Cs]
-2.0 -5.2 79 -7 -7 очень
холодно
1031.8 1031.2 -7.1 +0.8
09 14.01 СВ 1 45 км 5/0
[]
-4.3 -6.0 88 -7 -7 очень
холодно
1031.9 1031.3
12 14.01 СВ 1 45 км ясно -3.9 -5.6 88 -6 -6 холодно 1031.7 1031.1 -5.2 +0.8
15 14.01 В 4 45 км 1/0
[]
-4.8 -6.1 91 -11 -11 очень
холодно
1030.8 1030.2
18 14.01 В 2 45 км 4/0
[Cs]
-1.2 -4.2 80 -4 -3 холодно 1030.7 1030.1 -7.1 -1.2 <0.5
21 14.01 З 3 45 км 10/0
[]
+3.0 -1.2 74 -0 +1 по сезону 1028.3 1027.7
00 15.01 Ю 2 45 км 10/0
[Ac As Cs]
+1.5 -0.6 86 -1 -1 прохладно 1026.8 1026.2 -7.1 +3.2
03 15.01 СЗ 2 30 км 8/0
[]
-0.2 -1.1 94 -3 -3 холодно 1026.4 1025.8
06 15.01 В 2 30 км 9/0
[Ac As Ci fib]
-1.4 -2.7 91 -5 -5 холодно 1026.2 1025.6 -7.1 +3.2
09 15.01 В 2 30 км 10/0
[]
-0.5 -3.0 83 -4 -4 прохладно 1026.2 1025.6
12 15.01 В 2 30 км 9/0 2000 м
[Ac As]
-1.7 -3.6 87 -6 -6 холодно 1026.5 1025.9 -2.4 +3.2
15 15.01 В 4 30 км 9/0 2000 м
[]
-1.3 -2.9 89 -7 -7 очень
холодно
1026.0 1025.4
18 15.01 В 3 30 км 9/8 1500 м
[Sc Ac As]
+0.9 -2.2 80 -4 -3 холодно 1026.8 1026.2 -2.6 +0.9
21 15.01 ЮЗ 2 30 км 9/0 2000 м
[]
+4.0 +0.3 77 +2 +3 по сезону 1025.8 1025.2
00 16.01 С 1 30 км 8/0 2000 м
[Ac As Cs]
+2.8 +1.0 88 +2 +3 по сезону 1026.1 1025.5 -2.6 +4.2
03 16.01 Ю 1 30 км 9/0 2000 м
[]
+2.8 +0.5 85 +1 +1 по сезону 1026.4 1025.8
06 16.01 В 2 30 км 10/0
[Ac As Ci fib]
+1.0 -1.7 82 -2 -2 прохладно 1026.4 1025.8 -2.6 +4.2
09 16.01 В 3 30 км 10/10 1500 м
[]
+1.0 -1.2 85 -3 -3 прохладно 1024.8 1024.2
12 16.01 В 3 30 км 10/1 1500 м
[Sc Ac As Ci fib]
+0.9 -1.2 86 -3 -3 прохладно 1024.1 1023.5 +0.2 +4.2
15 16.01 В 3 24 км 10/10 1500 м
[]
+1.8 -0.9 82 -3 -3 прохладно 1022.9 1022.3
18 16.01 В 3 45 км 10/0 2000 м
[Ac As]
+3.5 -1.7 69 0 +1 по сезону 1021.7 1021.1 +0.2 +3.5
21 16.01 В 3 45 км 10/10 1500 м
[]
+4.6 -1.2 66 +1 +1 по сезону 1018.3 1017.7
00 17.01 В 2 30 км в посл. час ливневой дождь 10/8 1500 м
[Sc Ac As]
+4.2 +0.9 79 +2 +2 по сезону 1015.4 1014.8 +0.2 +5.1 0.0
03 17.01 В 4 12 км 10/10 600 м
[]
+4.3 +3.6 95 -0 -0 по сезону 1014.6 1014.0
06 17.01 В 4 16 км слабый дождь 10/8 300 м
[Sc Ac As]
+4.7 +3.7 93 0 0 по сезону 1013.0 1012.4 +0.2 +6.0 4 5
09 17.01 В 2 19 км 10/10 600 м
[]
+6.0 +4.5 90 +3 +3 по сезону 1010.9 1010.3
12 17.01 СВ 6 16 км слабый дождь 10/9 600 м
[Sc Ac As]
+6.8 +4.8 87 +2 +2 по сезону 1009.2 1008.6 +3.3 +6.0 2
15 17.01 В 7 24 км 10/10 1000 м
[]
+7.8 +3.9 76 +4 +4 по сезону 1004.9 1004.3
18 17.01 В 6 24 км слабый дождь 10/10 1000 м
[Sc]
+8.4 +5.5 82 +5 +5 по сезону 1004.8 1004.2 +3.3 +8.5 5
21 17.01 В 6 24 км 10/10 1000 м
[]
+8.6 +6.1 84 +5 +5 по сезону 1003.0 1002.4
00 18.01 В 8 16 км слабый дождь 10/10 600 м
[Sc]
+7.8 +6.4 91 +3 +3 по сезону 998.1 997.5 +4.7 +9.0 7
03 18.01 В 8 9000 м 10/10 300 м
[]
+8.4 +7.3 93 +4 +4 по сезону 995.4 994.8
06 18.01 ЮВ 9 12 км слабый дождь 10/6 300 м
[Sc Ac As]
+8.3 +6.9 91 +3 +3 по сезону 995.3 994.7 +4.7 +9.0 14 31
09 18.01 ЮВ 8 16 км 10/10 300 м
[]
+8.7 +7.2 90 +4 +4 по сезону 995.3 994.7
12 18.01 В 8 8000 м дождь 10/3 300 м
[Frnb Ac As]
+8.6 +7.7 94 +4 +4 по сезону 993.5 992.9 +7.5 +9.0 4

 

Местоположение метеостанции Vancouver (Канада): широта 49.20 долгота -123.10 высота над уровнем моря 4 м.

В архиве по умолчанию представлена погода в Vancouver за последнюю неделю. Архивные данные за месяц целиком и за предыдущие месяцы, начиная с января 2011 года, Вы можете получить, выбрав интересующий диапазон дат из раскрывающегося списка и нажав кнопку "Ввод!".

Внимание! Время в таблицах - всемирное. Для получения местного времени необходимо прибавить поправку, которая в Vancouver равна -8 ч.

Ветер - указаны скорость ветра в м/с - средняя за 10 мин, порывы в срок и между сроками (в фигурных скобках) и направление, откуда дует ветер: С - северный, СВ - северо-восточный, В - восточный, ЮВ - юго-восточный, Ю - южный, ЮЗ - юго-западный, З - западный, СЗ - северо-западный.
Видимость - горизонтальная дальность видимости в метрах или километрах. При видимости от 1 до 10 км при отсутствии осадков обычно наблюдается дымка, при ухудшении видимости до 1 км и менее - туман. В сухую погоду видимость может ухудшаться дымом, пылью или мглою.
Явления - указаны атмосферные явления, наблюдавшиеся в срок или в последний час перед сроком; фигурными скобками обозначены явления, наблюдавшиеся между сроками (за 1-3 часа до срока); квадратными скобками обозначены град или гололедные отложения с указанием их диаметра в мм.
Облачность - указаны через наклонную черту общая и нижняя облачность в баллах и высота нижней границы облаков в метрах; квадратными скобками обозначены формы облаков: Ci - перистые, Cs - перисто-слоистые, Cc - перисто-кучевые, Ac - высококучевые, As - высокослоистые, Sc - слоисто-кучевые, Ns - слоисто-дождевые, Cu - кучевые, Cb - кучево-дождевые. Подробнее классификацию облаков см. в Атласе облаков (PDF).
T - Температура воздуха - температура, измеренная на высоте 2 м над землей.
Td - Температура точки росы - температура, при понижении до которой содержащийся в воздухе водяной пар достигнет насыщения.
f - Относительная влажность воздуха - влажноcть воздуха, измеренная на высоте 2 м над землей.
Te - Эффективная температура - температура, которую ощущает одетый по сезону человек в тени. Характеристика душности погоды. При расчете учитывается влияние влажности воздуха и скорости ветра на теплоощущения человека.
Tes - Эффективная температура на солнце - температура, которую ощущает человек, с поправкой на солнечный нагрев. Характеристика знойности погоды. Зависит от высоты солнца над горизонтом, облачности и скорости ветра. Ночью, в пасмурную погоду, а также при ветре 12 м/с и более поправка равна нулю.
P - Атмосферное давление - приведенное к уровню моря атмосферное давление.
Po - Атмосферное давление - измеренное на уровне метеостанции атмосферное давление.
Tmin - Минимальная температура - минимум температуры воздуха на высоте 2 м над землей.
Tmax - Максимальная температура - максимум температуры воздуха на высоте 2 м над землей.
R - Количество осадков - Количество выпавших осадков, мм. При наведении курсора мыши на число - период времени, за который выпало указанное количество осадков.
S - Снежный покров - Высота снежного покрова, см. При наведении курсора мыши на число - состояние снежного покрова и степень покрытия местности в баллах.